START_TIME,STEP,MOV.,M6,t_acc.,M7,t_acc.,M19,t_acc.,H36,t_acc.
1979-08-01 09:00:26.000 ,0,0,0.,12.0,0.,12.0,0.,12.0,0.,12.0
1979-08-01 09:00:38.000 ,0,0,0.,12.0,0.,12.0,0.,12.0,0.,12.0
1979-08-01 09:00:50.000 ,0,1,0.,12.0,0.,12.0,0.,12.0,0.,12.0
1979-08-01 09:01:02.000 ,0,1,0.,12.0,0.,12.0,0.,12.0,0.,12.0
1979-08-01 09:01:14.000 ,0,0,0.,12.0,0.,12.0,0.,12.0,0.,12.0
1979-08-01 09:01:26.000 ,0,0,0.,12.0,0.,12.0,0.,12.0,0.,12.0
1979-08-01 09:01:38.000 ,0,0,0.,12.0,0.,12.0,0.,12.0,0.,12.0
1979-08-01 09:01:50.000 ,0,0,0.,12.0,0.,12.0,0.,12.0,0.,12.0
1979-08-01 09:02:02.000 ,0,0,0.,12.0,0.,12.0,0.,12.0,0.,12.0
1979-08-01 09:02:14.000 ,0,0,0.,12.0,0.,12.0,0.,12.0,0.,12.0
1979-08-01 09:02:26.000 ,2,1,0.,12.0,0.,12.0,0.,12.0,0.,12.0
1979-08-01 09:02:38.000 ,2,1,0.,12.0,0.,12.0,0.,12.0,0.,12.0
1979-08-01 09:02:50.000 ,2,0,0.,12.0,0.,12.0,0.,12.0,0.,12.0
1979-08-01 09:03:02.000 ,2,0,0.,12.0,0.,12.0,0.,12.0,0.,12.0
1979-08-01 09:03:14.000 ,3,1,0.,12.0,0.,12.0,0.,12.0,0.,12.0
1979-08-01 09:03:26.000 ,3,1,0.,12.0,0.,12.0,0.,12.0,0.,12.0
1979-08-01 09:03:38.000 ,3,0,0.,12.0,0.,12.0,0.,12.0,0.,12.0
1979-08-01 09:03:50.000 ,3,0,0.,12.0,0.,12.0,0.,12.0,0.,12.0
1979-08-01 09:04:02.000 ,4,1,0.,12.0,0.,12.0,0.,12.0,0.,12.0
1979-08-01 09:04:14.000 ,4,1,0.,12.0,0.,12.0,0.,12.0,0.,12.0
1979-08-01 09:04:26.000 ,4,0,0.,12.0,0.,12.0,0.,12.0,0.,12.0
1979-08-01 09:04:38.000 ,4,0,0.,12.0,0.,12.0,0.,12.0,0.,12.0
1979-08-01 09:04:50.000 ,5,1,0.,12.0,0.,12.0,0.,12.0,0.,12.0
1979-08-01 09:05:02.000 ,5,1,0.,12.0,0.,12.0,0.,12.0,0.,12.0
1979-08-01 09:05:14.000 ,0,0,0.,12.0,0.,12.0,0.,12.0,0.,12.0
1979-08-01 09:05:26.000 ,0,0,0.,12.0,0.,12.0,0.,12.0,0.,12.0
1979-08-01 09:05:38.000 ,6,1,0.,12.0,0.,12.0,0.,12.0,0.,12.0
1979-08-01 09:05:50.000 ,6,1,0.,12.0,0.,12.0,0.,12.0,0.,12.0
1979-08-01 09:06:02.000 ,6,0,0.,12.0,0.,12.0,0.,12.0,0.,12.0
1979-08-01 09:06:14.000 ,6,0,0.,12.0,0.,12.0,0.,12.0,0.,12.0
1979-08-01 09:06:26.000 ,7,0,0.,12.0,0.,12.0,0.,12.0,0.,12.0
1979-08-01 09:06:38.000 ,7,0,,0,,0,,0,,0
1979-08-01 09:06:50.000 ,7,0,0.,12.0,0.,12.0,0.,12.0,0.,12.0
1979-08-01 09:07:02.000 ,7,0,0.,12.0,0.,12.0,0.,12.0,0.,12.0
1979-08-01 09:07:14.000 ,4,1,0.,12.0,0.,12.0,0.,12.0,0.,12.0
1979-08-01 09:07:26.000 ,4,1,0.,12.0,0.,12.0,0.,12.0,0.,12.0
1979-08-01 09:07:38.000 ,0,1,0.,12.0,0.,12.0,0.,12.0,0.,12.0
1979-08-01 09:07:50.000 ,0,1,0.,12.0,0.,12.0,0.,12.0,0.,12.0
1979-08-01 09:08:02.000 ,3,1,0.,12.0,0.,12.0,0.,12.0,0.,12.0
1979-08-01 09:08:14.000 ,3,1,0.,12.0,0.,12.0,0.,12.0,0.,12.0
1979-08-01 09:08:26.000 ,7,1,0.,12.0,0.,12.0,0.,12.0,0.,12.0
1979-08-01 09:08:38.000 ,7,1,0.,12.0,0.,12.0,0.,12.0,0.,12.0
1979-08-01 09:08:50.000 ,4,1,0.,12.0,0.,12.0,0.,12.0,0.,12.0
1979-08-01 09:09:02.000 ,4,1,0.,12.0,0.,12.0,0.,12.0,0.,12.0
1979-08-01 09:09:14.000 ,0,1,0.,12.0,0.,12.0,0.,12.0,0.,12.0
1979-08-01 09:09:26.000 ,0,1,0.,12.0,0.,12.0,0.,12.0,0.,12.0
1979-08-01 09:09:38.000 ,3,1,0.,12.0,0.,12.0,0.,12.0,0.,12.0
1979-08-01 09:09:50.000 ,3,1,0.,12.0,0.,12.0,0.,12.0,0.,12.0
1979-08-01 09:10:02.000 ,5,1,0.,12.0,0.,12.0,0.,12.0,0.,12.0
1979-08-01 09:10:14.000 ,5,1,,0,,0,,0,,0
1979-08-01 09:10:26.000 ,4,1,0.,12.0,0.,12.0,0.,12.0,0.,12.0
1979-08-01 09:10:38.000 ,4,1,0.,12.0,0.,12.0,0.,12.0,0.,12.0
1979-08-01 09:10:50.000 ,0,1,0.,12.0,0.,12.0,0.,12.0,0.,12.0
1979-08-01 09:11:02.000 ,0,1,0.,12.0,0.,12.0,0.,12.0,0.,12.0
1979-08-01 09:11:14.000 ,3,1,0.,12.0,0.,12.0,0.,12.0,0.,12.0
1979-08-01 09:11:26.000 ,3,1,0.,12.0,0.,12.0,0.,12.0,0.,12.0
1979-08-01 09:11:38.000 ,7,1,0.,12.0,0.,12.0,0.,12.0,0.,12.0
1979-08-01 09:11:50.000 ,7,1,0.,12.0,0.,12.0,0.,12.0,0.,12.0
1979-08-01 09:12:02.000 ,4,1,0.,12.0,0.,12.0,0.,12.0,0.,12.0
1979-08-01 09:12:14.000 ,4,1,0.,12.0,0.,12.0,0.,12.0,0.,12.0
1979-08-01 09:12:26.000 ,2,1,0.,12.0,0.,12.0,0.,12.0,0.,12.0
1979-08-01 09:12:38.000 ,2,1,,0,,0,,0,,0
1979-08-01 09:12:50.000 ,3,1,0.,12.0,0.,12.0,0.,12.0,0.,12.0
1979-08-01 09:13:02.000 ,3,1,0.,12.0,0.,12.0,0.,12.0,0.,12.0
1979-08-01 09:13:14.000 ,7,1,0.,12.0,0.,12.0,0.,12.0,0.,12.0
1979-08-01 09:13:26.000 ,7,1,0.,12.0,0.,12.0,0.,12.0,0.,12.0
1979-08-01 09:13:38.000 ,4,1,0.,12.0,0.,12.0,0.,12.0,0.,12.0
1979-08-01 09:13:50.000 ,4,1,0.,12.0,0.,12.0,0.,12.0,0.,12.0
1979-08-01 09:14:02.000 ,0,1,0.,12.0,0.,12.0,0.,12.0,0.,12.0
1979-08-01 09:14:14.000 ,0,1,0.,12.0,0.,12.0,0.,12.0,0.,12.0
1979-08-01 09:14:26.000 ,3,1,0.,12.0,0.,12.0,0.,12.0,0.,12.0
1979-08-01 09:14:38.000 ,3,1,0.,12.0,0.,12.0,0.,12.0,0.,12.0
1979-08-01 09:14:50.000 ,7,1,0.,12.0,0.,12.0,0.,12.0,0.,12.0
1979-08-01 09:15:02.000 ,7,1,0.,12.0,0.,12.0,0.,12.0,0.,12.0
1979-08-01 09:15:14.000 ,4,1,0.,12.0,0.,12.0,0.,12.0,0.,12.0
1979-08-01 09:15:26.000 ,4,1,0.,12.0,0.,12.0,0.,12.0,0.,12.0
1979-08-01 09:15:38.000 ,0,1,0.,12.0,0.,12.0,0.,12.0,0.,12.0
1979-08-01 09:15:50.000 ,0,1,0.,12.0,0.,12.0,0.,12.0,0.,12.0
1979-08-01 09:16:02.000 ,3,1,0.,12.0,0.,12.0,0.,12.0,0.,12.0
1979-08-01 09:16:14.000 ,3,1,0.,12.0,0.,12.0,0.,12.0,0.,12.0
1979-08-01 09:16:26.000 ,7,1,0.,12.0,0.,12.0,0.,12.0,0.,12.0
1979-08-01 09:16:38.000 ,7,1,0.,12.0,0.,12.0,0.,12.0,0.,12.0
1979-08-01 09:16:50.000 ,4,1,0.,12.0,0.,12.0,0.,12.0,0.,12.0
1979-08-01 09:17:02.000 ,4,1,0.,12.0,0.,12.0,0.,12.0,0.,12.0
1979-08-01 09:17:14.000 ,0,1,0.,12.0,0.,12.0,0.,12.0,0.,12.0
1979-08-01 09:17:26.000 ,0,1,0.,12.0,0.,12.0,0.,12.0,0.,12.0
1979-08-01 09:17:38.000 ,0,0,0.,12.0,0.,12.0,0.,12.0,0.,12.0
1979-08-01 09:17:50.000 ,0,0,0.,12.0,0.,12.0,0.,12.0,0.,12.0
1979-08-01 09:18:02.000 ,0,0,0.,12.0,0.,12.0,0.,12.0,0.,12.0
1979-08-01 09:18:14.000 ,0,0,0.,12.0,0.,12.0,0.,12.0,0.,12.0
1979-08-01 09:18:26.000 ,5,1,0.,12.0,0.,12.0,0.,12.0,0.,12.0
1979-08-01 09:18:38.000 ,5,1,0.,12.0,0.,12.0,0.,12.0,0.,12.0
1979-08-01 09:18:50.000 ,5,0,0.,12.0,0.,12.0,0.,12.0,0.,12.0
1979-08-01 09:19:02.000 ,5,0,0.,12.0,0.,12.0,0.,12.0,0.,12.0
1979-08-01 09:19:14.000 ,4,1,0.,12.0,0.,12.0,0.,12.0,0.,12.0
1979-08-01 09:19:26.000 ,4,1,0.,12.0,0.,12.0,0.,12.0,0.,12.0
1979-08-01 09:19:38.000 ,4,0,0.,12.0,0.,12.0,0.,12.0,0.,12.0
1979-08-01 09:19:50.000 ,4,0,0.,12.0,0.,12.0,0.,12.0,0.,12.0
1979-08-01 09:20:02.000 ,3,1,0.,12.0,0.,12.0,0.,12.0,0.,12.0
1979-08-01 09:20:14.000 ,3,1,0.,12.0,0.,12.0,0.,12.0,0.,12.0
1979-08-01 09:20:26.000 ,3,0,0.,12.0,0.,12.0,0.,12.0,0.,12.0
1979-08-01 09:20:38.000 ,3,0,0.,12.0,0.,12.0,0.,12.0,0.,12.0
1979-08-01 09:20:50.000 ,2,1,0.,12.0,0.,12.0,0.,12.0,0.,12.0
1979-08-01 09:21:02.000 ,2,1,0.,12.0,0.,12.0,0.,12.0,0.,12.0
1979-08-01 09:21:14.000 ,2,0,0.,12.0,0.,12.0,0.,12.0,0.,12.0
1979-08-01 09:21:26.000 ,2,0,0.,12.0,0.,12.0,0.,12.0,0.,12.0
1979-08-01 09:21:38.000 ,1,1,0.,12.0,0.,12.0,0.,12.0,0.,12.0
1979-08-01 09:21:50.000 ,1,1,0.,12.0,0.,12.0,0.,12.0,0.,12.0
1979-08-01 09:22:02.000 ,1,0,0.,12.0,0.,12.0,0.,12.0,0.,12.0
1979-08-01 09:22:14.000 ,1,0,0.,12.0,0.,12.0,0.,12.0,0.,12.0
1979-08-01 09:22:26.000 ,0,1,0.,12.0,0.,12.0,0.,12.0,0.,12.0
1979-08-01 09:22:38.000 ,0,1,0.,12.0,0.,12.0,0.,12.0,0.,12.0
1979-08-01 09:22:50.000 ,0,0,0.,12.0,0.,12.0,0.,12.0,0.,12.0
1979-08-01 09:23:02.000 ,0,0,0.,12.0,0.,12.0,0.,12.0,0.,12.0
1979-08-01 09:23:14.000 ,0,1,0.,12.0,0.,12.0,0.,12.0,0.,12.0
1979-08-01 09:23:26.000 ,0,1,0.,12.0,0.,12.0,0.,12.0,0.,12.0
1979-08-01 09:23:38.000 ,0,0,0.,12.0,0.,12.0,0.,12.0,0.,12.0
1979-08-01 09:23:50.000 ,0,0,0.,12.0,0.,12.0,0.,12.0,0.,12.0
1979-08-01 09:24:02.000 ,1,1,0.,12.0,0.,12.0,0.,12.0,0.,12.0
1979-08-01 09:24:14.000 ,1,1,0.,12.0,0.,12.0,0.,12.0,0.,12.0
1979-08-01 09:24:26.000 ,1,0,0.,12.0,0.,12.0,0.,12.0,0.,12.0
1979-08-01 09:24:38.000 ,1,0,0.,12.0,0.,12.0,0.,12.0,0.,12.0
1979-08-01 09:24:50.000 ,2,1,0.,12.0,0.,12.0,0.,12.0,0.,12.0
1979-08-01 09:25:02.000 ,2,1,0.,12.0,0.,12.0,0.,12.0,0.,12.0
1979-08-01 09:25:14.000 ,0,0,0.,12.0,0.,12.0,0.,12.0,0.,12.0
1979-08-01 09:25:26.000 ,0,0,,0,,0,,0,,0
1979-08-01 09:25:38.000 ,3,1,0.,12.0,0.,12.0,0.,12.0,0.,12.0
1979-08-01 09:25:50.000 ,3,1,0.,12.0,0.,12.0,0.,12.0,0.,12.0
1979-08-01 09:26:02.000 ,3,0,0.,12.0,0.,12.0,0.,12.0,0.,12.0
1979-08-01 09:26:14.000 ,3,0,0.,12.0,0.,12.0,0.,12.0,0.,12.0
1979-08-01 09:26:26.000 ,4,1,0.,12.0,0.,12.0,0.,12.0,0.,12.0
1979-08-01 09:26:38.000 ,4,1,0.,12.0,0.,12.0,0.,12.0,0.,12.0
1979-08-01 09:26:50.000 ,4,0,0.,12.0,0.,12.0,0.,12.0,0.,12.0
1979-08-01 09:27:02.000 ,4,0,0.,12.0,0.,12.0,0.,12.0,0.,12.0
1979-08-01 09:27:14.000 ,5,1,0.,12.0,0.,12.0,0.,12.0,0.,12.0
1979-08-01 09:27:26.000 ,5,1,0.,12.0,0.,12.0,0.,12.0,0.,12.0
1979-08-01 09:27:38.000 ,5,0,0.,12.0,0.,12.0,0.,12.0,0.,12.0
1979-08-01 09:27:50.000 ,5,0,0.,12.0,0.,12.0,0.,12.0,0.,12.0
1979-08-01 09:28:02.000 ,6,1,0.,12.0,0.,12.0,0.,12.0,0.,12.0
1979-08-01 09:28:14.000 ,6,1,0.,12.0,0.,12.0,0.,12.0,0.,12.0
1979-08-01 09:28:26.000 ,6,0,0.,12.0,0.,12.0,0.,12.0,0.,12.0
1979-08-01 09:28:38.000 ,6,0,0.,12.0,0.,12.0,0.,12.0,0.,12.0
1979-08-01 09:28:50.000 ,7,1,0.,12.0,0.,12.0,0.,12.0,0.,12.0
1979-08-01 09:29:02.000 ,7,1,0.,12.0,0.,12.0,0.,12.0,0.,12.0
1979-08-01 09:29:14.000 ,7,0,0.,12.0,0.,12.0,0.,12.0,0.,12.0
1979-08-01 09:29:26.000 ,7,0,0.,12.0,0.,12.0,0.,12.0,0.,12.0
1979-08-01 09:29:38.000 ,7,1,0.,12.0,0.,12.0,0.,12.0,0.,12.0
1979-08-01 09:29:50.000 ,7,1,0.,12.0,0.,12.0,0.,12.0,0.,12.0
1979-08-01 09:30:02.000 ,7,0,0.,12.0,0.,12.0,0.,12.0,0.,12.0
1979-08-01 09:30:14.000 ,7,0,0.,12.0,0.,12.0,0.,12.0,0.,12.0
1979-08-01 09:30:26.000 ,6,1,0.,12.0,0.,12.0,0.,12.0,0.,12.0
1979-08-01 09:30:38.000 ,6,1,0.,12.0,0.,12.0,0.,12.0,0.,12.0
1979-08-01 09:30:50.000 ,6,0,0.,12.0,0.,12.0,0.,12.0,0.,12.0
1979-08-01 09:31:02.000 ,6,0,0.,12.0,0.,12.0,0.,12.0,0.,12.0
1979-08-01 09:31:14.000 ,5,1,0.,12.0,0.,12.0,0.,12.0,0.,12.0
1979-08-01 09:31:26.000 ,5,1,0.,12.0,0.,12.0,0.,12.0,0.,12.0
1979-08-01 09:31:38.000 ,5,0,0.,12.0,0.,12.0,0.,12.0,0.,12.0
1979-08-01 09:31:50.000 ,5,0,0.,12.0,0.,12.0,0.,12.0,0.,12.0
1979-08-01 09:32:02.000 ,4,1,0.,12.0,0.,12.0,0.,12.0,0.,12.0
1979-08-01 09:32:14.000 ,4,1,0.,12.0,0.,12.0,0.,12.0,0.,12.0
1979-08-01 09:32:26.000 ,4,0,0.,12.0,0.,12.0,0.,12.0,0.,12.0
1979-08-01 09:32:38.000 ,4,0,0.,12.0,0.,12.0,0.,12.0,0.,12.0
1979-08-01 09:32:50.000 ,3,1,0.,12.0,0.,12.0,0.,12.0,0.,12.0
1979-08-01 09:33:02.000 ,3,1,0.,12.0,0.,12.0,0.,12.0,0.,12.0
1979-08-01 09:33:14.000 ,3,0,0.,12.0,0.,12.0,0.,12.0,0.,12.0
1979-08-01 09:33:26.000 ,3,0,0.,12.0,0.,12.0,0.,12.0,0.,12.0
1979-08-01 09:33:38.000 ,2,1,0.,12.0,0.,12.0,0.,12.0,0.,12.0
1979-08-01 09:33:50.000 ,2,1,0.,12.0,0.,12.0,0.,12.0,0.,12.0
1979-08-01 09:34:02.000 ,2,0,0.,12.0,0.,12.0,0.,12.0,0.,12.0
1979-08-01 09:34:14.000 ,2,0,0.,12.0,0.,12.0,0.,12.0,0.,12.0
1979-08-01 09:34:26.000 ,1,1,0.,12.0,0.,12.0,0.,12.0,0.,12.0
1979-08-01 09:34:38.000 ,1,1,0.,12.0,0.,12.0,0.,12.0,0.,12.0
1979-08-01 09:34:50.000 ,1,0,0.,12.0,0.,12.0,0.,12.0,0.,12.0
1979-08-01 09:35:02.000 ,1,0,0.,12.0,0.,12.0,0.,12.0,0.,12.0
1979-08-01 09:35:14.000 ,0,1,0.,12.0,0.,12.0,0.,12.0,0.,12.0
1979-08-01 09:35:26.000 ,0,1,0.,12.0,0.,12.0,0.,12.0,0.,12.0
1979-08-01 09:35:38.000 ,0,0,0.,12.0,0.,12.0,0.,12.0,0.,12.0
1979-08-01 09:35:50.000 ,0,0,0.,12.0,0.,12.0,0.,12.0,0.,12.0
1979-08-01 09:36:02.000 ,0,1,,0,,0,,0,,0
1979-08-01 09:36:14.000 ,0,1,0.,12.0,0.,12.0,0.,12.0,0.,12.0
1979-08-01 09:36:26.000 ,0,0,0.,12.0,0.,12.0,0.,12.0,0.,12.0
1979-08-01 09:36:38.000 ,0,0,0.,12.0,0.,12.0,0.,12.0,0.,12.0
1979-08-01 09:36:50.000 ,1,1,0.,12.0,0.,12.0,0.,12.0,0.,12.0
1979-08-01 09:37:02.000 ,1,1,0.,12.0,0.,12.0,0.,12.0,0.,12.0
1979-08-01 09:37:14.000 ,1,0,0.,12.0,0.,12.0,0.,12.0,0.,12.0
1979-08-01 09:37:26.000 ,1,0,0.,12.0,0.,12.0,0.,12.0,0.,12.0
1979-08-01 09:37:38.000 ,2,1,0.,12.0,0.,12.0,0.,12.0,0.,12.0
1979-08-01 09:37:50.000 ,2,1,0.,12.0,0.,12.0,0.,12.0,0.,12.0
1979-08-01 09:38:02.000 ,2,0,0.,12.0,0.,12.0,0.,12.0,0.,12.0
1979-08-01 09:38:14.000 ,2,0,0.,12.0,0.,12.0,0.,12.0,0.,12.0
1979-08-01 09:38:26.000 ,3,1,0.,12.0,0.,12.0,0.,12.0,0.,12.0
1979-08-01 09:38:38.000 ,3,1,0.,12.0,0.,12.0,0.,12.0,0.,12.0
1979-08-01 09:38:50.000 ,3,0,0.,12.0,0.,12.0,0.,12.0,0.,12.0
1979-08-01 09:39:02.000 ,3,0,1.,12.0,0.,12.0,0.,12.0,0.,12.0
1979-08-01 09:39:14.000 ,4,1,0.,12.0,0.,12.0,0.,12.0,0.,12.0
1979-08-01 09:39:26.000 ,4,1,0.,12.0,0.,12.0,0.,12.0,0.,12.0
1979-08-01 09:39:38.000 ,4,0,0.,12.0,0.,12.0,0.,12.0,0.,12.0
1979-08-01 09:39:50.000 ,4,0,0.,12.0,0.,12.0,0.,12.0,0.,12.0
1979-08-01 09:40:02.000 ,5,1,0.,12.0,0.,12.0,0.,12.0,0.,12.0
1979-08-01 09:40:14.000 ,5,1,0.,12.0,0.,12.0,0.,12.0,0.,12.0
1979-08-01 09:40:26.000 ,5,0,0.,12.0,0.,12.0,0.,12.0,0.,12.0
1979-08-01 09:40:38.000 ,5,0,0.,12.0,0.,12.0,0.,12.0,0.,12.0
1979-08-01 09:40:50.000 ,6,1,0.,12.0,0.,12.0,0.,12.0,0.,12.0
1979-08-01 09:41:02.000 ,6,1,0.,12.0,0.,12.0,0.,12.0,0.,12.0
1979-08-01 09:41:14.000 ,6,0,0.,12.0,0.,12.0,0.,12.0,0.,12.0
1979-08-01 09:41:26.000 ,6,0,0.,12.0,0.,12.0,0.,12.0,0.,12.0
1979-08-01 09:41:38.000 ,7,1,0.,12.0,0.,12.0,0.,12.0,0.,12.0
1979-08-01 09:41:50.000 ,7,1,0.,12.0,0.,12.0,0.,12.0,0.,12.0
1979-08-01 09:42:02.000 ,7,0,0.,12.0,0.,12.0,0.,12.0,0.,12.0
1979-08-01 09:42:14.000 ,7,0,0.,12.0,0.,12.0,0.,12.0,0.,12.0
1979-08-01 09:42:26.000 ,7,1,0.,12.0,0.,12.0,0.,12.0,0.,12.0
1979-08-01 09:42:38.000 ,7,1,0.,12.0,0.,12.0,0.,12.0,0.,12.0
1979-08-01 09:42:50.000 ,7,0,0.,12.0,0.,12.0,0.,12.0,0.,12.0
1979-08-01 09:43:02.000 ,7,0,0.,12.0,0.,12.0,0.,12.0,0.,12.0
1979-08-01 09:43:14.000 ,6,1,0.,12.0,0.,12.0,0.,12.0,0.,12.0
1979-08-01 09:43:26.000 ,6,1,0.,12.0,0.,12.0,0.,12.0,0.,12.0
1979-08-01 09:43:38.000 ,6,0,0.,12.0,0.,12.0,0.,12.0,0.,12.0
1979-08-01 09:43:50.000 ,6,0,0.,12.0,0.,12.0,0.,12.0,0.,12.0
1979-08-01 09:44:02.000 ,5,1,0.,12.0,0.,12.0,0.,12.0,0.,12.0
1979-08-01 09:44:14.000 ,5,1,0.,12.0,0.,12.0,0.,12.0,0.,12.0
1979-08-01 09:44:26.000 ,5,0,0.,12.0,0.,12.0,0.,12.0,0.,12.0
1979-08-01 09:44:38.000 ,5,0,0.,12.0,0.,12.0,0.,12.0,0.,12.0
1979-08-01 09:44:50.000 ,4,1,0.,12.0,0.,12.0,0.,12.0,0.,12.0
1979-08-01 09:45:02.000 ,4,1,0.,12.0,0.,12.0,0.,12.0,0.,12.0
1979-08-01 09:45:14.000 ,4,0,0.,12.0,0.,12.0,0.,12.0,0.,12.0
1979-08-01 09:45:26.000 ,4,0,0.,12.0,0.,12.0,0.,12.0,0.,12.0
1979-08-01 09:45:38.000 ,3,1,0.,12.0,0.,12.0,0.,12.0,0.,12.0
1979-08-01 09:45:50.000 ,3,1,0.,12.0,0.,12.0,0.,12.0,0.,12.0
1979-08-01 09:46:02.000 ,3,0,0.,12.0,0.,12.0,0.,12.0,0.,12.0
1979-08-01 09:46:14.000 ,3,0,0.,12.0,0.,12.0,0.,12.0,0.,12.0
1979-08-01 09:46:26.000 ,2,1,0.,12.0,0.,12.0,0.,12.0,0.,12.0
1979-08-01 09:46:38.000 ,2,1,0.,12.0,0.,12.0,0.,12.0,0.,12.0
1979-08-01 09:46:50.000 ,2,0,0.,12.0,0.,12.0,0.,12.0,0.,12.0
1979-08-01 09:47:02.000 ,2,0,0.,12.0,0.,12.0,0.,12.0,0.,12.0
1979-08-01 09:47:14.000 ,1,1,0.,12.0,0.,12.0,0.,12.0,0.,12.0
1979-08-01 09:47:26.000 ,1,1,0.,12.0,0.,12.0,0.,12.0,0.,12.0
1979-08-01 09:47:38.000 ,1,0,0.,12.0,0.,12.0,0.,12.0,0.,12.0
1979-08-01 09:47:50.000 ,1,0,0.,12.0,0.,12.0,0.,12.0,0.,12.0
1979-08-01 09:48:02.000 ,0,1,,0,,0,,0,,0
1979-08-01 09:48:14.000 ,0,1,0.,12.0,0.,12.0,0.,12.0,0.,12.0
1979-08-01 09:48:26.000 ,0,0,0.,12.0,0.,12.0,0.,12.0,0.,12.0
1979-08-01 09:48:38.000 ,0,0,0.,12.0,0.,12.0,0.,12.0,0.,12.0
1979-08-01 09:48:50.000 ,0,1,0.,12.0,0.,12.0,0.,12.0,0.,12.0
1979-08-01 09:49:02.000 ,0,1,0.,12.0,0.,12.0,0.,12.0,0.,12.0
1979-08-01 09:49:14.000 ,0,0,0.,12.0,0.,12.0,0.,12.0,0.,12.0
1979-08-01 09:49:26.000 ,0,0,0.,12.0,0.,12.0,0.,12.0,0.,12.0
1979-08-01 09:49:38.000 ,1,1,0.,12.0,0.,12.0,0.,12.0,0.,12.0
1979-08-01 09:49:50.000 ,1,1,0.,12.0,0.,12.0,0.,12.0,0.,12.0
1979-08-01 09:50:02.000 ,1,0,0.,12.0,0.,12.0,0.,12.0,0.,12.0
1979-08-01 09:50:14.000 ,1,0,0.,12.0,0.,12.0,0.,12.0,0.,12.0
1979-08-01 09:50:26.000 ,2,1,0.,12.0,0.,12.0,0.,12.0,0.,12.0
1979-08-01 09:50:38.000 ,2,1,0.,12.0,0.,12.0,0.,12.0,0.,12.0
1979-08-01 09:50:50.000 ,2,0,0.,12.0,0.,12.0,0.,12.0,0.,12.0
1979-08-01 09:51:02.000 ,2,0,0.,12.0,0.,12.0,0.,12.0,0.,12.0
1979-08-01 09:51:14.000 ,3,1,0.,12.0,0.,12.0,0.,12.0,0.,12.0
1979-08-01 09:51:26.000 ,3,1,0.,12.0,0.,12.0,0.,12.0,0.,12.0
1979-08-01 09:51:38.000 ,3,0,0.,12.0,0.,12.0,0.,12.0,0.,12.0
1979-08-01 09:51:50.000 ,3,0,0.,12.0,0.,12.0,0.,12.0,0.,12.0
1979-08-01 09:52:02.000 ,4,1,0.,12.0,0.,12.0,0.,12.0,0.,12.0
1979-08-01 09:52:14.000 ,4,1,0.,12.0,0.,12.0,0.,12.0,0.,12.0
1979-08-01 09:52:26.000 ,4,0,0.,12.0,0.,12.0,0.,12.0,0.,12.0
1979-08-01 09:52:38.000 ,4,0,0.,12.0,0.,12.0,0.,12.0,0.,12.0
1979-08-01 09:52:50.000 ,5,1,0.,12.0,0.,12.0,0.,12.0,0.,12.0
1979-08-01 09:53:02.000 ,5,1,0.,12.0,0.,12.0,0.,12.0,0.,12.0
1979-08-01 09:53:14.000 ,5,0,0.,12.0,0.,12.0,0.,12.0,0.,12.0
1979-08-01 09:53:26.000 ,5,0,0.,12.0,0.,12.0,0.,12.0,0.,12.0
1979-08-01 09:53:38.000 ,6,1,0.,12.0,0.,12.0,0.,12.0,0.,12.0
1979-08-01 09:53:50.000 ,6,1,0.,12.0,0.,12.0,0.,12.0,0.,12.0
1979-08-01 09:54:02.000 ,6,0,0.,12.0,0.,12.0,0.,12.0,0.,12.0
1979-08-01 09:54:14.000 ,6,0,0.,12.0,0.,12.0,0.,12.0,0.,12.0
1979-08-01 09:54:26.000 ,7,0,0.,12.0,0.,12.0,0.,12.0,0.,12.0
1979-08-01 09:54:38.000 ,7,0,0.,12.0,0.,12.0,0.,12.0,0.,12.0
1979-08-01 09:54:50.000 ,7,0,0.,12.0,0.,12.0,0.,12.0,0.,12.0
1979-08-01 09:55:02.000 ,7,0,0.,12.0,0.,12.0,0.,12.0,0.,12.0
1979-08-01 09:55:14.000 ,4,1,0.,12.0,0.,12.0,0.,12.0,0.,12.0
1979-08-01 09:55:26.000 ,4,1,0.,12.0,0.,12.0,0.,12.0,0.,12.0
1979-08-01 09:55:38.000 ,0,1,0.,12.0,0.,12.0,0.,12.0,0.,12.0
1979-08-01 09:55:50.000 ,0,1,0.,12.0,0.,12.0,0.,12.0,0.,12.0
1979-08-01 09:56:02.000 ,3,1,0.,12.0,0.,12.0,0.,12.0,0.,12.0
1979-08-01 09:56:14.000 ,3,1,0.,12.0,0.,12.0,0.,12.0,0.,12.0
1979-08-01 09:56:26.000 ,7,1,0.,12.0,0.,12.0,0.,12.0,0.,12.0
1979-08-01 09:56:38.000 ,7,1,0.,12.0,0.,12.0,0.,12.0,0.,12.0
1979-08-01 09:56:50.000 ,4,1,0.,12.0,0.,12.0,0.,12.0,0.,12.0
1979-08-01 09:57:02.000 ,4,1,0.,12.0,0.,12.0,0.,12.0,0.,12.0
1979-08-01 09:57:14.000 ,0,1,0.,12.0,0.,12.0,0.,12.0,0.,12.0
1979-08-01 09:57:26.000 ,0,1,0.,12.0,0.,12.0,0.,12.0,0.,12.0
1979-08-01 09:57:38.000 ,3,1,0.,12.0,0.,12.0,0.,12.0,0.,12.0
1979-08-01 09:57:50.000 ,3,1,0.,12.0,0.,12.0,0.,12.0,0.,12.0
1979-08-01 09:58:02.000 ,7,1,0.,12.0,0.,12.0,0.,12.0,0.,12.0
1979-08-01 09:58:14.000 ,7,1,0.,12.0,0.,12.0,0.,12.0,0.,12.0
1979-08-01 09:58:26.000 ,4,1,0.,12.0,0.,12.0,0.,12.0,0.,12.0
1979-08-01 09:58:38.000 ,4,1,0.,12.0,0.,12.0,0.,12.0,0.,12.0
1979-08-01 09:58:50.000 ,0,1,0.,12.0,0.,12.0,0.,12.0,0.,12.0
1979-08-01 09:59:02.000 ,0,1,0.,12.0,0.,12.0,0.,12.0,0.,12.0
1979-08-01 09:59:14.000 ,3,1,0.,12.0,0.,12.0,0.,12.0,0.,12.0
1979-08-01 09:59:26.000 ,3,1,0.,12.0,0.,12.0,0.,12.0,0.,12.0
1979-08-01 09:59:38.000 ,7,1,0.,12.0,0.,12.0,0.,12.0,0.,12.0
1979-08-01 09:59:50.000 ,7,1,0.,12.0,0.,12.0,0.,12.0,0.,12.0
1979-08-01 10:00:02.000 ,4,1,0.,12.0,0.,12.0,0.,12.0,0.,12.0
1979-08-01 10:00:14.000 ,4,1,0.,12.0,0.,12.0,0.,12.0,0.,12.0
1979-08-01 10:00:26.000 ,0,1,0.,12.0,0.,12.0,0.,12.0,0.,12.0
1979-08-01 10:00:38.000 ,0,1,0.,12.0,0.,12.0,0.,12.0,0.,12.0
1979-08-01 10:00:50.000 ,3,1,0.,12.0,0.,12.0,0.,12.0,0.,12.0
1979-08-01 10:01:02.000 ,3,1,0.,12.0,0.,12.0,0.,12.0,0.,12.0
1979-08-01 10:01:14.000 ,7,1,0.,12.0,0.,12.0,0.,12.0,0.,12.0
1979-08-01 10:01:26.000 ,7,1,0.,12.0,0.,12.0,0.,12.0,0.,12.0
1979-08-01 10:01:38.000 ,4,1,0.,12.0,0.,12.0,0.,12.0,0.,12.0
1979-08-01 10:01:50.000 ,4,1,0.,12.0,0.,12.0,0.,12.0,0.,12.0
1979-08-01 10:02:02.000 ,0,1,0.,12.0,0.,12.0,0.,12.0,0.,12.0
1979-08-01 10:02:14.000 ,0,1,0.,12.0,0.,12.0,0.,12.0,0.,12.0
1979-08-01 10:02:26.000 ,3,1,0.,12.0,0.,12.0,0.,12.0,0.,12.0
1979-08-01 10:02:38.000 ,3,1,0.,12.0,0.,12.0,0.,12.0,0.,12.0
1979-08-01 10:02:50.000 ,7,1,0.,12.0,0.,12.0,0.,12.0,0.,12.0
1979-08-01 10:03:02.000 ,7,1,0.,12.0,0.,12.0,0.,12.0,0.,12.0
1979-08-01 10:03:14.000 ,4,1,0.,12.0,0.,12.0,0.,12.0,0.,12.0
1979-08-01 10:03:26.000 ,4,1,0.,12.0,0.,12.0,0.,12.0,0.,12.0
1979-08-01 10:03:38.000 ,0,1,0.,12.0,0.,12.0,0.,12.0,0.,12.0
1979-08-01 10:03:50.000 ,0,1,0.,12.0,0.,12.0,0.,12.0,0.,12.0
1979-08-01 10:04:02.000 ,0,0,0.,12.0,0.,12.0,0.,12.0,0.,12.0
1979-08-01 10:04:14.000 ,0,0,0.,12.0,0.,12.0,0.,12.0,0.,12.0
1979-08-01 10:04:26.000 ,7,1,0.,12.0,0.,12.0,0.,12.0,0.,12.0
1979-08-01 10:04:38.000 ,7,1,0.,12.0,0.,12.0,0.,12.0,0.,12.0
1979-08-01 10:04:50.000 ,4,1,0.,12.0,0.,12.0,0.,12.0,0.,12.0
1979-08-01 10:05:02.000 ,4,1,0.,12.0,0.,12.0,0.,12.0,0.,12.0
1979-08-01 10:05:14.000 ,0,1,0.,12.0,0.,12.0,0.,12.0,0.,12.0
1979-08-01 10:05:26.000 ,0,1,0.,12.0,0.,12.0,0.,12.0,0.,12.0
1979-08-01 10:05:38.000 ,0,0,0.,12.0,0.,12.0,0.,12.0,0.,12.0
1979-08-01 10:05:50.000 ,0,0,0.,12.0,0.,12.0,0.,12.0,0.,12.0
1979-08-01 10:06:02.000 ,0,0,0.,12.0,0.,12.0,0.,12.0,0.,12.0
1979-08-01 10:06:14.000 ,0,0,0.,12.0,0.,12.0,0.,12.0,0.,12.0
1979-08-01 10:06:26.000 ,5,1,0.,12.0,0.,12.0,0.,12.0,0.,12.0
1979-08-01 10:06:38.000 ,5,1,0.,12.0,0.,12.0,0.,12.0,0.,12.0
1979-08-01 10:06:50.000 ,5,0,0.,12.0,0.,12.0,0.,12.0,0.,12.0
1979-08-01 10:07:02.000 ,5,0,0.,12.0,0.,12.0,0.,12.0,0.,12.0
1979-08-01 10:07:14.000 ,4,1,0.,12.0,0.,12.0,0.,12.0,0.,12.0
1979-08-01 10:07:26.000 ,4,1,0.,12.0,0.,12.0,0.,12.0,0.,12.0
1979-08-01 10:07:38.000 ,4,0,0.,12.0,0.,12.0,0.,12.0,0.,12.0
1979-08-01 10:07:50.000 ,4,0,0.,12.0,0.,12.0,0.,12.0,0.,12.0
1979-08-01 10:08:02.000 ,3,1,0.,12.0,0.,12.0,0.,12.0,0.,12.0
1979-08-01 10:08:14.000 ,3,1,0.,12.0,0.,12.0,0.,12.0,0.,12.0
1979-08-01 10:08:26.000 ,3,0,0.,12.0,0.,12.0,0.,12.0,0.,12.0
1979-08-01 10:08:38.000 ,3,0,0.,12.0,0.,12.0,0.,12.0,0.,12.0
1979-08-01 10:08:50.000 ,2,1,0.,12.0,0.,12.0,0.,12.0,0.,12.0
1979-08-01 10:09:02.000 ,2,1,0.,12.0,0.,12.0,0.,12.0,0.,12.0
1979-08-01 10:09:14.000 ,2,0,0.,12.0,0.,12.0,0.,12.0,0.,12.0
1979-08-01 10:09:26.000 ,2,0,0.,12.0,0.,12.0,0.,12.0,0.,12.0
1979-08-01 10:09:38.000 ,1,1,0.,12.0,0.,12.0,0.,12.0,0.,12.0
1979-08-01 10:09:50.000 ,1,1,0.,12.0,0.,12.0,0.,12.0,0.,12.0
1979-08-01 10:10:02.000 ,1,0,0.,12.0,0.,12.0,0.,12.0,0.,12.0
1979-08-01 10:10:14.000 ,1,0,0.,12.0,0.,12.0,0.,12.0,0.,12.0
1979-08-01 10:10:26.000 ,0,1,0.,12.0,0.,12.0,0.,12.0,0.,12.0
1979-08-01 10:10:38.000 ,0,1,0.,12.0,0.,12.0,0.,12.0,0.,12.0
1979-08-01 10:10:50.000 ,0,0,0.,12.0,0.,12.0,0.,12.0,0.,12.0
1979-08-01 10:11:02.000 ,0,0,0.,12.0,0.,12.0,0.,12.0,0.,12.0
1979-08-01 10:11:14.000 ,0,1,0.,12.0,0.,12.0,0.,12.0,0.,12.0
1979-08-01 10:11:26.000 ,0,1,0.,12.0,0.,12.0,0.,12.0,0.,12.0
1979-08-01 10:11:38.000 ,0,0,1.,12.0,0.,12.0,0.,12.0,0.,12.0
1979-08-01 10:11:50.000 ,0,0,0.,12.0,0.,12.0,0.,12.0,0.,12.0
1979-08-01 10:12:01.990 ,1,1,0.,12.0,0.,12.0,0.,12.0,0.,12.0
1979-08-01 10:12:14.000 ,1,1,0.,12.0,0.,12.0,0.,12.0,0.,12.0
1979-08-01 10:12:25.990 ,1,0,0.,12.0,0.,12.0,0.,12.0,0.,12.0
1979-08-01 10:12:38.000 ,1,0,0.,12.0,0.,12.0,0.,12.0,0.,12.0
1979-08-01 10:12:49.990 ,2,1,0.,12.0,0.,12.0,0.,12.0,0.,12.0
1979-08-01 10:13:02.000 ,2,1,0.,12.0,0.,12.0,0.,12.0,0.,12.0
1979-08-01 10:13:13.990 ,2,0,0.,12.0,0.,12.0,0.,12.0,0.,12.0
1979-08-01 10:13:26.000 ,2,0,0.,12.0,0.,12.0,0.,12.0,0.,12.0
1979-08-01 10:13:37.990 ,3,1,0.,12.0,0.,12.0,0.,12.0,0.,12.0
1979-08-01 10:13:50.000 ,3,1,0.,12.0,0.,12.0,0.,12.0,0.,12.0
1979-08-01 10:14:01.990 ,3,0,0.,12.0,0.,12.0,0.,12.0,0.,12.0
1979-08-01 10:14:14.000 ,3,0,0.,12.0,0.,12.0,0.,12.0,0.,12.0
1979-08-01 10:14:25.990 ,4,1,0.,12.0,0.,12.0,0.,12.0,0.,12.0
1979-08-01 10:14:38.000 ,4,1,0.,12.0,0.,12.0,0.,12.0,0.,12.0
1979-08-01 10:14:49.990 ,4,0,0.,12.0,0.,12.0,0.,12.0,0.,12.0
1979-08-01 10:15:02.000 ,4,0,0.,12.0,0.,12.0,0.,12.0,0.,12.0
1979-08-01 10:15:13.990 ,5,1,0.,12.0,0.,12.0,0.,12.0,0.,12.0
1979-08-01 10:15:26.000 ,5,1,0.,12.0,0.,12.0,0.,12.0,0.,12.0
1979-08-01 10:15:37.990 ,5,0,0.,12.0,0.,12.0,0.,12.0,0.,12.0
1979-08-01 10:15:50.000 ,5,0,0.,12.0,0.,12.0,0.,12.0,0.,12.0
1979-08-01 10:16:01.990 ,6,1,0.,12.0,0.,12.0,0.,12.0,0.,12.0
1979-08-01 10:16:14.000 ,6,1,0.,12.0,0.,12.0,0.,12.0,0.,12.0
1979-08-01 10:16:25.990 ,6,0,0.,12.0,0.,12.0,0.,12.0,0.,12.0
1979-08-01 10:16:38.000 ,6,0,0.,12.0,0.,12.0,0.,12.0,0.,12.0
1979-08-01 10:16:49.990 ,7,1,0.,12.0,0.,12.0,0.,12.0,0.,12.0
1979-08-01 10:17:02.000 ,7,1,0.,12.0,0.,12.0,0.,12.0,0.,12.0
1979-08-01 10:17:13.990 ,0,0,0.,12.0,0.,12.0,0.,12.0,0.,12.0
1979-08-01 10:17:25.990 ,0,0,0.,12.0,0.,12.0,0.,12.0,0.,12.0
1979-08-01 10:17:37.990 ,7,1,0.,12.0,0.,12.0,0.,12.0,0.,12.0
1979-08-01 10:17:49.990 ,7,1,0.,12.0,0.,12.0,0.,12.0,0.,12.0